Regional Weather Roundup
Issued by NWS

Home | Current Version | Previous Version | Graphics & Text | Print | Product List | Glossary Off
Versions: 1 2 3 4 5 6 7 8 9 10 11 12 13 14 15 16 17 18 19 20 21 22 23 24 25 26 27 28 29 30 31 32 33 34 35 36 37 38 39 40 41 42 43 44 45 46 47 48 49 50

000
ASUS43 KTOP 260459
RWRKS

WEATHER ROUNDUP FOR KANSAS
NATIONAL WEATHER SERVICE GOODLAND KS
1200 AM CDT THU MAY 26 2016

NOTE:  "FAIR" INDICATES FEW OR NO CLOUDS BELOW 12,000 FEET WITH NO
SIGNIFICANT WEATHER AND/OR OBSTRUCTIONS TO VISIBILITY.

KSZ001>006-013>018-027>032-041>047-260600-
NORTHWEST KANSAS

CITY           SKY/WX    TMP DP  RH WIND       PRES   REMARKS
GOODLAND       CLEAR     52  47  83 E8        29.92S
HAYS           CLEAR     61  59  94 NE16      29.89R
HILL CITY      CLEAR     60  52  74 NE13      29.90F
RUSSELL        PTCLDY    67  65  93 NE9       29.89R
$$

KSZ061>065-074>080-084>089-260600-
SOUTHWEST KANSAS

CITY           SKY/WX    TMP DP  RH WIND       PRES   REMARKS
DODGE CITY     CLEAR     64  60  87 E7        29.85F
ELKHART          N/A     69  37  30 S8          N/A
GARDEN CITY    CLEAR     64  59  83 E9        29.85S
GREAT BEND     CLEAR     70  63  78 NE8       29.87R
LIBERAL        CLEAR     63  43  48 SE7       29.85F
$$

KSZ066>073-081>083-090>101-260600-
SOUTHEAST KANSAS

CITY           SKY/WX    TMP DP  RH WIND       PRES   REMARKS
CHANUTE        CLOUDY    77  71  82 S13       29.88S
COFFEYVILLE    CLOUDY    78  73  84 S7        29.89R
HUTCHINSON     CLEAR     75  71  87 S7        29.84R
MEDICINE LODGE   N/A     76  56  49 S17       29.83R
NEWTON         CLEAR     73  68  83 SE6       29.87R
PARSONS        CLOUDY    78  73  84 VRB6      29.90R
WICHITA INTL   CLOUDY    77  73  87 S14       29.83R
WICHITA JABRA  CLOUDY    76  73  91 S13       29.83S
WINFIELD       CLOUDY    78  72  81 S14G22    29.86S
$$

KSZ007>012-019>026-033>040-048>060-102>105-260600-
NORTHEAST KANSAS

CITY           SKY/WX    TMP DP  RH WIND       PRES   REMARKS
CONCORDIA      MOCLDY    72  69  90 N6        29.89R
EMPORIA        CLEAR     75  72  90 S15       29.84F
LAWRENCE       CLOUDY    75  71  87 S6        29.87R
MANHATTAN      CLOUDY    67  58  72 CALM      29.83S
OLATHE IND     CLOUDY    74  71  91 S12       29.88S
OLATHE EXE     CLOUDY    73  69  87 S10G21    29.88S
SALINA         CLEAR     70  67  90 NW8       29.84R
TOPEKA BILLARD CLOUDY    69  58  67 S14       29.84F THUNDER
TOPEKA FORBES  TSTM      68  61  78 SE9       29.84F
$$




USA.gov is the U.S. government's official web portal to all federal, state and local government web resources and services.